K5MGY Weather Reports


time (UTC)temp
F
wind
direction
speed
knots
gust
knots
rain 1hr
in
rain 24hr
in
rain mn
in
humidity
%
barometer
mb
20260506034212 70 267 0.0 1.7 0.00 0.00 0.00 68 1032.5
20260506033709 71 275 0.9 0.9 0.00 0.00 0.00 68 1032.5
20260506033206 71 242 0.0 2.6 0.00 0.00 0.00 67 1032.3
20260506032703 71 230 0.0 1.7 0.00 0.00 0.00 67 1032.0
20260506032200 71 301 0.0 1.7 0.00 0.00 0.00 67 1032.0
20260506031657 71 281 0.0 0.9 0.00 0.00 0.00 66 1032.1
20260506031154 71 247 0.0 0.9 0.00 0.00 0.00 67 1032.2
20260506030653 72 254 0.0 0.0 0.00 0.00 0.00 67 1032.0
20260506030149 72 251 0.0 0.9 0.00 0.00 0.00 67 1032.0
20260506025646 72 282 0.0 1.7 0.00 0.00 0.00 66 1031.9
20260506025142 73 259 0.9 2.6 0.00 0.00 0.00 66 1031.8
20260506024640 73 253 0.0 0.9 0.00 0.00 0.00 66 1031.6
20260506024136 73 260 0.0 1.7 0.00 0.00 0.00 65 1031.3
20260506023632 73 264 0.0 0.9 0.00 0.00 0.00 65 1031.5
20260506023130 74 248 0.9 5.2 0.00 0.00 0.00 66 1031.3
20260506022627 74 256 0.9 0.9 0.00 0.00 0.00 65 1030.9
20260506022124 75 257 0.9 0.9 0.00 0.00 0.00 64 1030.7
20260506021622 75 263 0.0 0.9 0.00 0.00 0.00 64 1030.8
20260506021119 75 248 0.0 0.0 0.00 0.00 0.00 64 1030.5
20260506020616 75 254 0.0 0.9 0.00 0.00 0.00 64 1030.4
20260506020114 76 277 0.0 0.0 0.00 0.00 0.00 64 1030.1
20260506015611 76 255 0.0 0.9 0.00 0.00 0.00 64 1030.2
20260506015108 76 51 0.0 0.9 0.00 0.00 0.00 63 1030.0
20260506014606 77 283 0.9 0.9 0.00 0.00 0.00 63 1030.0
20260506014101 77 119 0.0 0.0 0.00 0.00 0.00 63 1030.0
20260506013559 78 212 0.9 2.6 0.00 0.00 0.00 62 1029.8
20260506013055 78 247 0.0 0.9 0.00 0.00 0.00 62 1029.6
20260506012552 78 200 0.0 0.9 0.00 0.00 0.00 61 1029.5
20260506012048 79 260 0.0 1.7 0.00 0.00 0.00 61 1029.5
20260506011547 79 229 0.0 0.9 0.00 0.00 0.00 61 1029.5
20260506011042 80 224 0.0 0.9 0.00 0.00 0.00 61 1029.8
20260506010542 80 202 0.0 0.0 0.00 0.00 0.00 60 1029.6
20260506010038 80 237 0.9 0.9 0.00 0.00 0.00 60 1029.4
20260506005535 80 276 0.0 0.9 0.00 0.00 0.00 60 1029.1
20260506005031 81 251 0.0 0.0 0.00 0.00 0.00 58 1028.8
20260506004529 81 251 0.0 0.9 0.00 0.00 0.00 58 1029.0
20260506004025 81 209 0.9 1.7 0.00 0.00 0.00 58 1029.3
20260506003522 82 229 0.0 0.9 0.00 0.00 0.00 58 1028.9
20260506003018 82 216 0.0 0.9 0.00 0.00 0.00 58 1029.0
20260506002514 83 351 0.0 0.9 0.00 0.00 0.00 57 1028.8
20260506002009 83 249 0.0 0.9 0.00 0.00 0.00 58 1028.9
20260506001506 84 259 0.0 0.0 0.00 0.00 0.00 57 1029.2
20260506001004 85 277 0.0 1.7 0.00 0.00 0.00 59 1028.9
20260506000501 85 189 0.9 1.7 0.00 0.00 0.00 66 1028.8
20260505235958 85 4 1.7 1.7 0.00 0.00 0.00 66 1028.4
20260505235456 86 157 1.7 2.6 0.00 0.00 0.00 65 1028.3
20260505234952 86 262 0.9 0.9 0.00 0.00 0.00 66 1028.4
20260505234450 86 184 0.0 0.9 0.00 0.00 0.00 65 1028.3
20260505233947 86 220 0.9 2.6 0.00 0.00 0.00 65 1028.0
20260505233444 86 249 3.5 5.2 0.00 0.00 0.00 64 1028.2
20260505232941 87 180 2.6 7.0 0.00 0.00 0.00 64 1028.0
20260505232440 87 163 1.7 6.1 0.00 0.00 0.00 63 1027.8
20260505231936 88 131 3.5 6.1 0.00 0.00 0.00 62 1027.7
20260505231433 88 162 1.7 5.2 0.00 0.00 0.00 62 1027.9
20260505230932 88 209 1.7 7.0 0.00 0.00 0.00 62 1028.0
20260505230429 89 207 1.7 7.0 0.00 0.00 0.00 61 1028.1
20260505225925 89 172 2.6 5.2 0.00 0.00 0.00 59 1027.9
20260505225423 90 199 3.5 6.1 0.00 0.00 0.00 55 1027.5
20260505224918 90 179 1.7 5.2 0.00 0.00 0.00 53 1027.4
20260505224415 91 176 1.7 5.2 0.00 0.00 0.00 54 1027.5
20260505223912 90 206 4.3 6.1 0.00 0.00 0.00 54 1027.6
20260505223409 91 197 1.7 7.0 0.00 0.00 0.00 54 1027.6
20260505222905 91 143 1.7 2.6 0.00 0.00 0.00 54 1027.6
20260505222402 91 177 1.7 6.1 0.00 0.00 0.00 54 1027.6
20260505221858 90 189 1.7 5.2 0.00 0.00 0.00 54 1027.4
20260505221355 91 147 3.5 6.1 0.00 0.00 0.00 53 1027.4
20260505220852 91 242 1.7 3.5 0.00 0.00 0.00 52 1027.6
20260505220349 91 231 1.7 2.6 0.00 0.00 0.00 51 1027.3
20260505215847 91 230 0.0 1.7 0.00 0.00 0.00 50 1027.3
20260505215345 92 159 3.5 7.0 0.00 0.00 0.00 49 1027.3
20260505214843 92 220 0.0 5.2 0.00 0.00 0.00 49 1027.2
20260505214340 92 149 1.7 2.6 0.00 0.00 0.00 48 1027.4
20260505213837 92 277 0.9 2.6 0.00 0.00 0.00 50 1027.5
20260505213335 92 168 1.7 2.6 0.00 0.00 0.00 50 1027.3
20260505212831 92 159 0.9 2.6 0.00 0.00 0.00 49 1027.5
20260505212328 91 146 0.0 2.6 0.00 0.00 0.00 50 1027.8
20260505211824 92 260 1.7 3.5 0.00 0.00 0.00 50 1027.8
20260505211322 91 292 0.9 1.7 0.00 0.00 0.00 51 1027.9
20260505210818 91 148 0.9 1.7 0.00 0.00 0.00 53 1028.0
20260505210315 92 231 0.9 1.7 0.00 0.00 0.00 53 1027.8
20260505205812 92 240 0.9 1.7 0.00 0.00 0.00 51 1028.1
20260505205310 91 189 1.7 2.6 0.00 0.00 0.00 51 1028.0
20260505204807 91 168 1.7 6.1 0.00 0.00 0.00 50 1028.2
20260505204304 90 180 0.9 2.6 0.00 0.00 0.00 53 1028.2
20260505203801 90 125 0.0 2.6 0.00 0.00 0.00 54 1028.2
20260505203258 90 192 1.7 6.1 0.00 0.00 0.00 53 1028.4
20260505202754 90 214 1.7 5.2 0.00 0.00 0.00 53 1028.4
20260505202251 90 156 0.9 1.7 0.00 0.00 0.00 54 1028.4
20260505201747 90 195 1.7 3.5 0.00 0.00 0.00 52 1028.5
20260505201245 91 263 1.7 6.1 0.00 0.00 0.00 53 1028.6
20260505200743 91 189 1.7 2.6 0.00 0.00 0.00 53 1028.7
20260505200240 91 227 0.9 2.6 0.00 0.00 0.00 54 1028.7
20260505195735 91 173 0.9 2.6 0.00 0.00 0.00 55 1028.6
20260505195233 90 192 1.7 1.7 0.00 0.00 0.00 55 1028.6
20260505194730 91 278 0.9 5.2 0.00 0.00 0.00 54 1028.7
20260505194226 90 277 0.9 5.2 0.00 0.00 0.00 56 1028.8
20260505193722 89 267 0.0 3.5 0.00 0.00 0.00 56 1028.6
20260505193220 89 264 1.7 6.1 0.00 0.00 0.00 56 1029.0
20260505192718 89 231 0.9 2.6 0.00 0.00 0.00 56 1028.8
20260505192215 89 283 1.7 6.1 0.00 0.00 0.00 57 1028.5
20260505191714 89 236 2.6 6.1 0.00 0.00 0.00 57 1028.6
20260505191212 88 321 0.9 2.6 0.00 0.00 0.00 58 1028.7
20260505190708 88 186 3.5 6.1 0.00 0.00 0.00 58 1028.8
20260505190207 89 163 4.3 6.1 0.00 0.00 0.00 56 1029.0
20260505185704 88 259 1.7 3.5 0.00 0.00 0.00 57 1029.0
20260505185201 88 204 2.6 2.6 0.00 0.00 0.00 60 1029.2
20260505184657 87 265 1.7 3.5 0.00 0.00 0.00 59 1029.1
20260505184154 87 140 2.6 5.2 0.00 0.00 0.00 61 1029.2
20260505183651 87 293 0.9 3.5 0.00 0.00 0.00 61 1029.2
20260505183149 87 151 0.0 1.7 0.00 0.00 0.00 62 1029.2
20260505182645 87 220 2.6 5.2 0.00 0.00 0.00 60 1029.3
20260505182142 86 268 1.7 7.0 0.00 0.00 0.00 61 1029.3
20260505181638 86 237 3.5 7.8 0.00 0.00 0.00 60 1029.2
20260505181136 86 225 0.0 6.1 0.00 0.00 0.00 63 1029.5
20260505180632 86 151 2.6 6.1 0.00 0.00 0.00 62 1029.4
20260505180129 86 145 0.9 3.5 0.00 0.00 0.00 63 1029.4
20260505175625 85 171 0.9 2.6 0.00 0.00 0.00 63 1029.4
20260505175122 85 204 0.9 6.1 0.00 0.00 0.00 63 1029.4
20260505174618 85 118 2.6 6.1 0.00 0.00 0.00 63 1029.2
20260505174114 84 157 2.6 5.2 0.00 0.00 0.00 64 1029.4
20260505173611 84 183 1.7 3.5 0.00 0.00 0.00 64 1029.4
20260505173108 84 146 4.3 7.8 0.00 0.00 0.00 63 1029.5
20260505172606 84 154 1.7 3.5 0.00 0.00 0.00 64 1029.5
20260505172102 84 152 0.9 3.5 0.00 0.00 0.00 64 1029.6
20260505171557 83 168 0.9 2.6 0.00 0.00 0.00 65 1029.3
20260505171054 83 217 2.6 5.2 0.00 0.00 0.00 65 1029.5
20260505170551 84 166 2.6 7.0 0.00 0.00 0.00 64 1029.7
20260505170047 84 124 0.9 2.6 0.00 0.00 0.00 65 1029.6
20260505165542 84 167 2.6 3.5 0.00 0.00 0.00 64 1029.8
20260505165038 84 231 3.5 6.1 0.00 0.00 0.00 63 1029.6
20260505164535 83 162 0.9 2.6 0.00 0.00 0.00 66 1029.2
20260505164032 83 255 2.6 7.0 0.00 0.00 0.00 65 1029.3
20260505163531 83 160 4.3 9.6 0.00 0.00 0.00 64 1029.2
20260505163027 82 202 3.5 7.0 0.00 0.00 0.00 65 1029.5
20260505162521 82 225 1.7 5.2 0.00 0.00 0.00 67 1029.2
20260505162018 81 162 1.7 6.1 0.00 0.00 0.00 68 1029.4
20260505161514 81 77 2.6 7.8 0.00 0.00 0.00 69 1029.1
20260505161011 81 180 1.7 7.8 0.00 0.00 0.00 69 1029.3
20260505160510 81 222 2.6 7.0 0.00 0.00 0.00 69 1029.4
20260505152946 78 165 2.6 6.1 0.00 0.00 0.00 73 1029.6
20260505152443 79 139 2.6 5.2 0.00 0.00 0.00 73 1029.4
20260505151943 79 336 2.6 7.0 0.00 0.00 0.00 71 1029.6
20260505151439 78 238 1.7 3.5 0.00 0.00 0.00 73 1029.5
20260505150937 78 188 2.6 6.1 0.00 0.00 0.00 74 1029.5
20260505150434 77 174 1.7 6.1 0.00 0.00 0.00 75 1029.6
20260505140404 74 184 4.3 9.6 0.00 0.00 0.00 80 1029.2
20260505124817 70 189 2.6 3.5 0.00 0.00 0.00 86 1028.7
20260505124314 70 192 0.9 3.5 0.00 0.00 0.00 86 1028.6
20260505123810 70 206 2.6 6.1 0.00 0.00 0.00 87 1028.5
20260505123307 70 170 3.5 6.1 0.00 0.00 0.00 87 1028.8
20260505122803 70 151 2.6 5.2 0.00 0.00 0.00 87 1028.5
20260505122301 70 165 0.9 2.6 0.00 0.00 0.00 87 1028.6
20260505121757 70 183 0.9 5.2 0.00 0.00 0.00 87 1028.8
20260505121254 70 245 0.9 6.1 0.00 0.00 0.00 87 1028.4
20260505120750 70 191 1.7 3.5 0.00 0.00 0.00 87 1028.2
20260505120246 70 203 0.9 3.5 0.00 0.00 0.00 87 1028.2
20260505115745 69 256 2.6 5.2 0.00 0.00 0.00 88 1028.6
20260505115243 69 185 0.9 2.6 0.00 0.00 0.00 88 1028.3
20260505114740 69 195 0.0 1.7 0.00 0.00 0.00 88 1028.3
20260505114236 69 278 1.7 3.5 0.00 0.00 0.00 88 1028.4
20260505113733 69 177 1.7 3.5 0.00 0.00 0.00 87 1028.3
20260505113229 69 146 1.7 2.6 0.00 0.00 0.00 87 1028.3
20260505112725 70 171 1.7 3.5 0.00 0.00 0.00 87 1028.4
20260505112223 70 200 1.7 5.2 0.00 0.00 0.00 87 1028.4
20260505111723 70 154 2.6 3.5 0.00 0.00 0.00 87 1028.2
20260505111219 70 203 0.0 5.2 0.00 0.00 0.00 87 1028.1
20260505110715 70 120 2.6 7.0 0.00 0.00 0.00 87 1028.0
20260505110213 70 172 1.7 6.1 0.00 0.00 0.00 86 1028.0
20260505102148 71 205 0.9 5.2 0.00 0.00 0.00 84 1028.0
20260505101647 71 178 1.7 5.2 0.00 0.00 0.00 84 1028.1
20260505101143 71 231 1.7 6.1 0.00 0.00 0.00 84 1028.3
20260505100639 71 209 0.9 3.5 0.00 0.00 0.00 84 1028.3
20260505100136 71 203 5.2 7.0 0.00 0.00 0.00 84 1028.1
20260505095632 71 270 2.6 6.1 0.00 0.00 0.00 83 1028.0
20260505095129 71 169 1.7 3.5 0.00 0.00 0.00 83 1028.1
20260505094626 71 109 3.5 6.1 0.00 0.00 0.00 83 1028.4
20260505094122 71 141 2.6 5.2 0.00 0.00 0.00 83 1028.5
20260505093618 71 213 0.9 7.8 0.00 0.00 0.00 83 1028.2
20260505093115 71 253 2.6 7.0 0.00 0.00 0.00 83 1028.5
20260505092613 71 213 1.7 3.5 0.00 0.00 0.00 83 1028.4
20260505092112 71 257 3.5 5.2 0.00 0.00 0.00 84 1028.5
20260505091608 71 172 1.7 6.1 0.00 0.00 0.00 84 1028.7
20260505091106 71 172 1.7 6.1 0.00 0.00 0.00 84 1028.5
20260505090604 71 197 1.7 5.2 0.00 0.00 0.00 84 1028.8
20260505085558 71 218 3.5 6.1 0.00 0.00 0.00 84 1028.7
20260505085057 71 232 3.5 5.2 0.00 0.00 0.00 84 1028.4
20260505084555 71 219 3.5 9.6 0.00 0.00 0.00 84 1028.5
20260505084053 71 162 2.6 5.2 0.00 0.00 0.00 84 1028.6
20260505083549 71 179 2.6 6.1 0.00 0.00 0.00 84 1028.4
20260505083046 71 123 1.7 2.6 0.00 0.00 0.00 84 1028.3
20260505082542 71 117 4.3 7.8 0.00 0.00 0.00 84 1028.6
20260505082039 71 223 0.9 3.5 0.00 0.00 0.00 83 1028.8
20260505081535 71 169 5.2 9.6 0.00 0.00 0.00 83 1028.6
20260505081032 71 209 4.3 6.1 0.00 0.00 0.00 83 1028.7
20260505080528 71 165 3.5 5.2 0.00 0.00 0.00 83 1028.6
20260505080025 71 162 5.2 7.0 0.00 0.00 0.00 83 1029.0
20260505075521 71 191 2.6 3.5 0.00 0.00 0.00 82 1028.8
20260505075018 71 173 1.7 7.8 0.00 0.00 0.00 82 1028.9
20260505074515 71 197 5.2 12.2 0.00 0.00 0.00 82 1028.8
20260505074013 71 141 4.3 7.8 0.00 0.00 0.00 82 1029.1
20260505073510 71 131 4.3 7.8 0.00 0.00 0.00 82 1029.0
20260505073008 72 167 2.6 11.3 0.00 0.00 0.00 81 1029.1
20260505072503 72 211 1.7 6.1 0.00 0.00 0.00 81 1029.3
20260505071959 72 146 2.6 3.5 0.00 0.00 0.00 81 1029.2
20260505071455 72 207 3.5 7.0 0.00 0.00 0.00 80 1029.6
20260505070954 72 186 3.5 8.7 0.00 0.00 0.00 80 1029.4
20260505070450 72 118 2.6 8.7 0.00 0.00 0.00 80 1029.6
20260505065946 72 185 3.5 5.2 0.00 0.00 0.00 80 1029.9
20260505065443 72 172 2.6 7.8 0.00 0.00 0.00 80 1029.6
20260505064939 72 167 1.7 6.1 0.00 0.00 0.00 79 1029.9
20260505064436 72 182 2.6 7.8 0.00 0.00 0.00 79 1029.7
20260505063935 73 221 1.7 7.0 0.00 0.00 0.00 79 1030.0
20260505063431 73 188 1.7 9.6 0.00 0.00 0.00 78 1029.9
20260505062927 73 168 1.7 7.0 0.00 0.00 0.00 78 1030.0
20260505062425 73 189 5.2 7.8 0.00 0.00 0.00 77 1029.8
20260505061921 73 155 3.5 5.2 0.00 0.00 0.00 77 1030.2
20260505061420 73 157 2.6 5.2 0.00 0.00 0.00 77 1030.1
20260505060917 73 197 2.6 9.6 0.00 0.00 0.00 76 1030.2
20260505060414 73 182 4.3 6.1 0.00 0.00 0.00 76 1029.9
20260505055910 73 111 4.3 7.8 0.00 0.00 0.00 75 1029.9
20260505055406 73 137 3.5 6.1 0.00 0.00 0.00 75 1029.9
20260505054903 73 132 4.3 6.1 0.00 0.00 0.00 74 1029.7
20260505054400 74 146 3.5 7.0 0.00 0.00 0.00 74 1029.7
20260505053858 74 125 3.5 8.7 0.00 0.00 0.00 74 1029.8
20260505053355 74 156 3.5 8.7 0.00 0.00 0.00 73 1029.9
20260505052852 74 135 2.6 7.8 0.00 0.00 0.00 73 1029.9
20260505052349 74 202 3.5 6.1 0.00 0.00 0.00 72 1029.9
20260505051846 74 196 1.7 3.5 0.00 0.00 0.00 72 1030.0
20260505051343 74 214 3.5 7.0 0.00 0.00 0.00 72 1030.0
20260505050841 75 162 1.7 5.2 0.00 0.00 0.00 71 1030.0
20260505050340 75 162 2.6 7.0 0.00 0.00 0.00 71 1030.3
20260505041307 75 207 1.7 5.2 0.00 0.00 0.00 70 1030.2
20260505040804 75 151 2.6 3.5 0.00 0.00 0.00 70 1030.3
20260505040301 75 160 2.6 6.1 0.00 0.00 0.00 70 1030.2
20260505035758 75 127 7.0 9.6 0.00 0.00 0.00 70 1030.3
20260505035254 75 124 4.3 6.1 0.00 0.00 0.00 70 1030.4
20260505034751 75 225 3.5 3.5 0.00 0.00 0.00 70 1030.4